Weather History for KD95 - September, 2012

Change the Weather History Date:

Monday, September 17, 2012

  Actual Average (KFNT) Record (KFNT)
Temperature  
Mean Temperature 62 °F 61 °F  
Max Temperature 76 °F 72 °F 94 °F (1955)
Min Temperature 48 °F 49 °F 30 °F (1959)
Degree Days  
Heating Degree Days 3 6  
Month to date heating degree days 60  
Since 1 July heating degree days 104  
Cooling Degree Days 0 1  
Month to date cooling degree days 36  
Year to date cooling degree days 513  
Growing Degree Days 12 (Base 50)    
Moisture  
Dew Point 52 °F    
Average Humidity 66    
Maximum Humidity 100    
Minimum Humidity 39    
Precipitation  
Precipitation 0.00 in 0.14 in 1.68 in (1973)
Month to date precipitation 2.11  
Year to date precipitation 22.67  
Snow  
Snow - 0.00 in 0.00 in ()
Month to date snowfall 0.0  
Since 1 July snowfall 0.0  
Since 1 September snowfall 0.0  
Snow Depth -    
Sea Level Pressure  
Sea Level Pressure 29.89 in    
Wind  
Wind Speed 5 mph ()    
Max Wind Speed 15 mph    
Max Gust Speed 21 mph    
Visibility 10.0 miles    
Events      
T = Trace of Precipitation, MM = Missing Value Source: Averaged Metar Reports

Daily Weather History Graph

Daily Weather History Graph

Search for Another Location

Airport or City:

Trip Planner

Search our weather history database for the weather conditions in past years. The results will help you decide how hot, cold, wet, or windy it might be!

Date:

Astronomy

Sep. 17, 2012 Rise Set
Actual Time 7:15 AM EDT 7:38 PM EDT
Civil Twilight 6:46 AM EDT 8:06 PM EDT
Nautical Twilight 6:13 AM EDT 8:40 PM EDT
Astronomical Twilight 5:38 AM EDT 9:14 PM EDT
Moon 9:07 AM EDT (9/17) 8:14 PM EDT (9/17)
Length of Visible Light 13h 20m
Length of Day
12h 23m
Waxing Crescent, 3% of the Moon is Illuminated
Sep 17
Waxing Crescent
Sep 22
First Quarter
Sep 29
Full
Oct 8
Last Quarter
Oct 15
New

Hourly Weather History & Observations

Time (EDT) Temp. Dew Point Humidity Pressure Visibility Wind Dir Wind Speed Gust Speed Precip Events Conditions
12:13 AM 58.1 °F 55.0 °F 90% 30.03 in 10.0 mi South 5.8 mph - N/A   Scattered Clouds
12:33 AM 59.0 °F 55.0 °F 87% 30.02 in 10.0 mi South 4.6 mph - N/A   Scattered Clouds
12:54 AM 58.6 °F 55.0 °F 88% 30.02 in 10.0 mi South 5.8 mph - N/A   Scattered Clouds
1:13 AM 56.7 °F 54.5 °F 92% 30.03 in 10.0 mi South 4.6 mph - N/A   Mostly Cloudy
1:33 AM 56.7 °F 54.3 °F 92% 30.03 in 10.0 mi South 3.5 mph - N/A   Mostly Cloudy
1:54 AM 56.3 °F 53.6 °F 91% 30.02 in 10.0 mi South 3.5 mph - N/A   Mostly Cloudy
2:13 AM 53.2 °F 53.2 °F 100% 30.02 in 10.0 mi Calm Calm - N/A   Scattered Clouds
2:34 AM 51.1 °F 51.1 °F 100% 30.01 in 10.0 mi Calm Calm - N/A   Clear
2:54 AM 50.2 °F 50.2 °F 100% 30.01 in 10.0 mi Calm Calm - N/A   Clear
3:13 AM 49.5 °F 49.5 °F 100% 30.00 in 10.0 mi Calm Calm - N/A   Clear
3:34 AM 49.3 °F 49.3 °F 100% 30.00 in 10.0 mi Calm Calm - N/A   Clear
3:54 AM 48.7 °F 48.7 °F 100% 29.99 in 10.0 mi Calm Calm - N/A   Clear
4:13 AM 48.6 °F 48.6 °F 100% 29.98 in 10.0 mi Calm Calm - N/A   Clear
4:34 AM 48.6 °F 48.6 °F 100% 29.98 in 10.0 mi South 3.5 mph - N/A   Clear
4:53 AM 53.4 °F 50.2 °F 89% 29.98 in 10.0 mi South 5.8 mph - N/A   Clear
5:13 AM 54.7 °F 50.2 °F 85% 29.98 in 10.0 mi South 6.9 mph - N/A   Clear
5:54 AM 54.9 °F 50.4 °F 85% 29.97 in 10.0 mi South 5.8 mph - N/A   Clear
6:13 AM 55.4 °F 47.7 °F 75% 29.97 in 10.0 mi South 5.8 mph - N/A   Clear
6:34 AM 54.9 °F 47.5 °F 76% 29.97 in 10.0 mi South 5.8 mph - N/A   Clear
6:53 AM 55.0 °F 47.5 °F 76% 29.97 in 10.0 mi South 5.8 mph - N/A   Clear
7:13 AM 54.7 °F 47.3 °F 76% 29.98 in 10.0 mi South 6.9 mph - N/A   Clear
7:34 AM 55.6 °F 47.5 °F 74% 29.97 in 10.0 mi South 6.9 mph - N/A   Clear
7:53 AM 56.3 °F 48.0 °F 74% 29.98 in 10.0 mi South 6.9 mph - N/A   Clear
8:13 AM 57.2 °F 48.2 °F 72% 29.97 in 10.0 mi South 5.8 mph - N/A   Clear
8:34 AM 59.0 °F 49.3 °F 70% 29.97 in 10.0 mi South 5.8 mph - N/A   Clear
8:53 AM 60.8 °F 49.8 °F 67% 29.97 in 10.0 mi South 5.8 mph - N/A   Clear
9:13 AM 62.8 °F 49.8 °F 63% 29.96 in 10.0 mi South 5.8 mph - N/A   Clear
9:34 AM 64.9 °F 49.3 °F 57% 29.96 in 10.0 mi South 8.1 mph - N/A   Clear
9:53 AM 66.2 °F 49.1 °F 54% 29.96 in 10.0 mi South 6.9 mph - N/A   Clear
10:13 AM 68.2 °F 48.7 °F 50% 29.96 in 10.0 mi South 9.2 mph - N/A   Clear
10:34 AM 70.0 °F 49.6 °F 48% 29.95 in 10.0 mi SSW 8.1 mph - N/A   Clear
10:53 AM 70.9 °F 48.6 °F 45% 29.95 in 10.0 mi SSW 12.7 mph - N/A   Clear
11:13 AM 72.1 °F 49.8 °F 45% 29.95 in 10.0 mi SSW 9.2 mph - N/A   Clear
11:34 AM 73.0 °F 47.3 °F 40% 29.95 in 10.0 mi SSW 13.8 mph 20.7 mph N/A   Clear
11:53 AM 73.8 °F 48.2 °F 40% 29.94 in 10.0 mi SSW 15.0 mph 19.6 mph N/A   Clear
12:13 PM 74.3 °F 48.0 °F 39% 29.93 in 10.0 mi SSW 12.7 mph - N/A   Clear
12:34 PM 74.7 °F 48.7 °F 40% 29.92 in 10.0 mi SSW 12.7 mph 17.3 mph N/A   Clear
12:53 PM 75.4 °F 49.8 °F 41% 29.91 in 10.0 mi South 13.8 mph 17.3 mph N/A   Clear
1:14 PM 75.7 °F 49.8 °F 40% 29.90 in 10.0 mi SSW 10.4 mph 18.4 mph N/A   Clear
1:34 PM 75.7 °F 49.1 °F 39% 29.90 in 10.0 mi SW 10.4 mph 17.3 mph N/A   Clear
1:53 PM 75.7 °F 49.6 °F 40% 29.89 in 10.0 mi SSW 12.7 mph 18.4 mph N/A   Clear
2:14 PM 76.1 °F 50.4 °F 40% 29.87 in 10.0 mi SSW 12.7 mph 17.3 mph N/A   Scattered Clouds
2:34 PM 75.6 °F 49.3 °F 39% 29.86 in 10.0 mi SSW 11.5 mph 19.6 mph N/A   Scattered Clouds
2:53 PM 76.5 °F 50.2 °F 40% 29.86 in 10.0 mi South 12.7 mph 18.4 mph N/A   Clear
3:14 PM 76.5 °F 50.4 °F 40% 29.84 in 10.0 mi SSW 12.7 mph 17.3 mph N/A   Scattered Clouds
3:33 PM 76.8 °F 51.1 °F 40% 29.84 in 10.0 mi SSW 9.2 mph - N/A   Scattered Clouds
3:53 PM 76.8 °F 50.7 °F 40% 29.84 in 10.0 mi SSW 10.4 mph 17.3 mph N/A   Mostly Cloudy
4:14 PM 76.6 °F 51.1 °F 41% 29.83 in 10.0 mi SSW 10.4 mph 16.1 mph N/A   Scattered Clouds
4:33 PM 75.9 °F 51.1 °F 42% 29.83 in 10.0 mi SSW 11.5 mph - N/A   Scattered Clouds
4:53 PM 76.3 °F 50.4 °F 40% 29.82 in 10.0 mi SSW 11.5 mph 17.3 mph N/A   Mostly Cloudy
5:14 PM 75.6 °F 51.1 °F 42% 29.81 in 10.0 mi SSW 5.8 mph - N/A   Overcast
5:33 PM 75.4 °F 51.6 °F 43% 29.80 in 10.0 mi SSW 9.2 mph - N/A   Scattered Clouds
5:53 PM 74.8 °F 52.3 °F 45% 29.79 in 10.0 mi South 6.9 mph - N/A   Clear
6:14 PM 73.9 °F 52.5 °F 47% 29.79 in 10.0 mi SSW 9.2 mph - N/A   Clear
6:53 PM 71.8 °F 54.1 °F 54% 29.78 in 10.0 mi South 4.6 mph - N/A   Mostly Cloudy
7:14 PM 70.5 °F 55.8 °F 59% 29.78 in 10.0 mi South 3.5 mph - N/A   Overcast
7:33 PM 68.9 °F 55.6 °F 62% 29.78 in 10.0 mi Calm Calm - N/A   Overcast
7:53 PM 67.3 °F 56.7 °F 69% 29.78 in 10.0 mi SSE 3.5 mph - N/A   Overcast
8:14 PM 67.5 °F 56.5 °F 68% 29.77 in 10.0 mi SSE 3.5 mph - N/A   Overcast
8:33 PM 67.3 °F 56.5 °F 68% 29.77 in 10.0 mi SE 4.6 mph - N/A   Overcast
8:53 PM 65.5 °F 56.5 °F 73% 29.76 in 10.0 mi Calm Calm - N/A   Scattered Clouds
9:14 PM 66.2 °F 56.5 °F 71% 29.76 in 10.0 mi SSE 3.5 mph - N/A   Mostly Cloudy
9:33 PM 66.2 °F 56.1 °F 70% 29.76 in 10.0 mi SSE 3.5 mph - N/A   Overcast
9:53 PM 65.8 °F 55.9 °F 70% 29.75 in 10.0 mi SSE 3.5 mph - N/A   Overcast
10:14 PM 65.3 °F 55.9 °F 72% 29.74 in 10.0 mi SSE 3.5 mph - N/A   Mostly Cloudy
10:33 PM 64.6 °F 55.8 °F 73% 29.73 in 10.0 mi SSE 4.6 mph - N/A   Scattered Clouds
10:54 PM 64.6 °F 55.9 °F 74% 29.72 in 10.0 mi SSE 3.5 mph - N/A   Scattered Clouds
11:14 PM 64.0 °F 56.3 °F 76% 29.71 in 10.0 mi SSE 4.6 mph - N/A   Scattered Clouds
11:33 PM 64.4 °F 56.5 °F 75% 29.71 in 10.0 mi SSE 4.6 mph - N/A   Mostly Cloudy
11:54 PM 63.9 °F 56.8 °F 78% 29.70 in 10.0 mi South 4.6 mph - N/A   Mostly Cloudy